RADUGA 1 1 8513U 75123A 23340.92762543 -.00000149 00000-0 00000+0 0 9999 2 8513 5.1901 281.0227 0006612 242.7940 329.7000 1.00258168185680 RADUGA 2 1 09416U 76092A 23340.85261181 .00000016 00000-0 00000-0 0 9995 2 09416 5.8588 283.1778 0028084 10.7634 155.1166 1.00252980120088 RADUGA 3 1 10159U 77071A 23340.45535542 .00000128 00000-0 00000+0 0 9993 2 10159 6.4864 286.0245 0009264 260.4288 101.7637 1.00334024167796 RADUGA 4 1 10987U 78073A 23340.86044385 -.00000315 00000-0 00000-0 0 9990 2 10987 7.1256 289.8574 0009107 5.9209 196.0069 1.00235987110348 RADUGA 5 1 11343U 79035A 23340.92466667 -.00000020 00000-0 00000+0 0 9996 2 11343 7.6008 292.8673 0005757 194.8623 349.8280 1.00292412120063 RADUGA 6 1 11708U 80016A 23340.85400417 -.00000047 00000-0 00000-0 0 9995 2 11708 7.9797 296.2061 0002599 236.5301 284.0441 1.00199309112907 RADUGA 7 1 12003U 80081A 23340.89290334 -.00000151 00000-0 00000-0 0 9991 2 12003 8.1787 298.3196 0010335 280.7528 87.4432 1.00163746114058 RADUGA 8 1 12351U 81027A 23340.89333846 -.00000192 00000-0 00000-0 0 9999 2 12351 8.5170 298.8175 0081411 244.5968 124.9556 1.00409809113286 RADUGA 9 1 12618U 81069A 23340.92797352 -.00000165 00000-0 00000+0 0 9990 2 12618 8.7597 302.0816 0002864 180.8331 12.7119 1.00191202119075 RADUGA 10 1 12897U 81102A 23341.02063083 .00000019 00000-0 00000+0 0 9993 2 12897 8.8560 303.1529 0005099 206.6441 357.7753 1.00273230108144 RADUGA 11 1 13669U 82113A 23340.84910689 -.00000094 00000-0 00000-0 0 9991 2 13669 11.0420 317.7407 0039815 267.7313 269.8655 0.97708721112511 RADUGA 12 1 13974U 83028A 23340.83035524 -.00000114 00000-0 00000-0 0 9994 2 13974 10.1095 313.4259 0000588 181.4833 317.8206 1.00250081160122 RADUGA 13 1 14307U 83088A 23340.96513226 -.00000028 00000-0 00000+0 0 9998 2 14307 11.3168 319.2351 0014854 47.3407 329.5174 0.98173011109874 RADUGA 14 1 14725U 84016A 23339.84616111 -.00000009 00000-0 00000-0 0 9996 2 14725 10.3711 317.4320 0003980 167.3634 320.0315 1.00288459108835 RADUGA 15 1 15057U 84063A 23340.08105188 .00000143 00000-0 00000-0 0 9990 2 15057 10.5044 318.4336 0005223 183.6881 352.2775 1.00213409131836 RADUGA 16 1 15946U 85070A 23340.83024696 -.00000274 00000-0 00000-0 0 9999 2 15946 11.0391 323.2173 0002387 216.8631 148.8542 1.00324131112977 RADUGA 17 1 16250U 85107A 23339.42692451 -.00000301 00000-0 00000-0 0 9993 2 16250 11.1853 324.6779 0014255 203.7655 161.3888 1.00134295142410 RADUGA 18 1 16497U 86007A 23340.89473083 -.00000052 00000-0 00000-0 0 9990 2 16497 12.0245 327.4648 0074832 178.5366 170.2487 0.98811361136733 RADUGA 19 1 17046U 86082A 23340.69640427 -.00000174 00000-0 00000-0 0 9995 2 17046 12.5218 331.5103 0013328 169.6424 186.7566 0.98461885133818 RADUGA 20 1 17611U 87028A 23339.79313962 -.00000142 00000-0 00000-0 0 9999 2 17611 14.5835 334.9402 0030382 153.5295 13.5740 0.95961806129449 RADUGA 21 1 18631U 87100A 23340.90038730 -.00000285 00000-0 00000-0 0 9993 2 18631 12.6348 332.0690 0003018 170.1582 205.1534 1.00292944131831 RADUGA 22 1 19596U 88095A 23340.69779663 .00000051 00000-0 00000-0 0 9991 2 19596 12.7021 336.5838 0008043 166.1186 192.7501 1.00265839112389 RADUGA 23 1 19928U 89030A 23340.93188955 -.00000324 00000-0 00000+0 0 9998 2 19928 12.8814 338.4024 0022070 180.8927 356.9757 1.00208800125587 RADUGA 1-1 1 20083U 89048A 23340.90099646 -.00000178 00000-0 00000-0 0 9994 2 20083 13.6915 341.5608 0021594 131.9432 236.9451 0.98709426122168 RADUGA 24 1 20367U 89098A 23340.99007706 -.00000284 00000-0 00000+0 0 9996 2 20367 13.5045 340.5564 0002547 200.0866 347.0071 1.00320080123771 RADUGA 25 1 20499U 90016A 23340.30608346 .00000090 00000-0 00000-0 0 9991 2 20499 13.2890 341.3028 0005815 177.7645 215.0636 1.00287915123648 RADUGA 26 1 21016U 90112A 23340.11507625 -.00000062 00000-0 00000-0 0 9991 2 21016 13.6659 344.5620 0006101 116.7349 87.2586 1.00222957120990 RADUGA 1-2 1 21038U 90116A 23339.97896743 -.00000295 00000-0 00000-0 0 9991 2 21038 13.7068 344.6189 0007542 124.7925 56.2325 1.00249820 38071 RADUGA 27 1 21132U 91014A 23340.86479500 -.00000344 00000-0 00000-0 0 9997 2 21132 14.2046 343.9635 0002442 147.8239 22.8379 1.00290697120050 RADUGA 28 1 21821U 91087A 23340.63400894 .00000098 00000-0 00000-0 0 9992 2 21821 14.0559 347.8712 0007137 156.9513 207.2895 1.00341941117061 RADUGA 29 1 22557U 93013A 23340.93676282 -.00000339 00000-0 00000+0 0 9997 2 22557 14.3458 352.0220 0006531 142.3825 48.6121 1.00239000112430 RADUGA 30 1 22836U 93062A 23340.06577325 -.00000137 00000-0 00000-0 0 9990 2 22836 14.4343 354.0453 0001724 268.6609 274.4304 1.00283463 36737 RADUGA 1-3 1 22981U 94008A 23340.63618450 .00000029 00000-0 00000-0 0 9999 2 22981 14.5388 355.1769 0003301 157.7726 210.8765 1.00318745109223 RADUGA 31 1 23010U 94012A 23341.05952115 -.00000119 00000-0 00000+0 0 9994 2 23010 14.5029 355.1714 0004741 127.6982 53.0888 1.00205523109084 RADUGA 32 1 23448U 94087A 23341.07063250 -.00000125 00000-0 00000+0 0 9993 2 23448 14.5500 357.9157 0007028 218.8783 322.0342 1.00282525123680 RADUGA 1-4 1 25642U 99010A 23340.04355128 -.00000341 00000-0 00000-0 0 9997 2 25642 15.3728 9.2595 0002625 232.2928 316.5230 1.00230338 90683 RADUGA 1-5 1 26477U 00049A 23340.58868726 -.00000313 00000-0 00000-0 0 9999 2 26477 13.4348 14.6982 0003666 95.1868 279.3043 1.00241527 85169 RADUGA 1-6 1 26936U 01045A 23340.60948587 -.00000035 00000-0 00000+0 0 9993 2 26936 13.7500 21.1632 0018288 181.1603 351.9414 0.97743497 79548 RADUGA 1-7 1 28194U 04010A 23340.84243014 .00000099 00000-0 00000-0 0 9995 2 28194 12.5966 27.8142 0004398 200.0973 167.0637 1.00272306 72161 RADUGA 1M-1 1 32373U 07058A 23341.11341896 -.00000188 00000-0 00000+0 0 9991 2 32373 8.0973 60.0312 0000686 172.5331 181.8153 0.99396336 59145 RADUGA 1-8 1 34264U 09010A 23340.04979958 -.00000267 00000-0 00000-0 0 9998 2 34264 10.2863 49.8682 0011894 12.7850 348.7852 0.99827536 53952 RADUGA 1M-2 1 36358U 10002A 23340.85617973 -.00000160 00000-0 00000-0 0 9994 2 36358 1.2172 91.0266 0003437 140.0534 237.5379 1.00271258 40835 RADUGA 1M-3 1 39375U 13062A 23340.91787889 .00000179 00000-0 00000-0 0 9995 2 39375 3.6021 83.5585 0001278 345.8524 11.4795 1.00272156 36846